Simultaneous Nadir Overpasses (SNOs) Predictions

Prediction of SNOs between GOES-15 and TERRA Satellite Orbit:

Table of predicted SNOs for the next 14.0 days since TLE Epoch: 11/28/2025
Index Date Time (GOES-15) GOES-15 Lat,Lon TERRA Lat,Lon Distance(km) Time Diff (sec)
1 11/29/2025 17:02:34 -0.66, 61.60 -0.59, 61.81 24.71 80
2 12/02/2025 05:02:20 0.64, 61.47 0.58, 61.81 37.85 80
3 12/04/2025 17:02:05 -0.62, 61.55 -0.60, 61.77 25.35 69
4 12/07/2025 05:02:03 0.61, 61.45 0.53, 61.76 35.93 80
5 12/09/2025 17:01:58 -0.60, 61.53 -0.57, 61.74 23.61 80
6 12/12/2025 05:01:44 0.58, 61.44 0.50, 61.73 33.85 80
